Epoch = 2005 Dec. 16.0 TT T = 2005 Dec. 25.44585 TT Peri. = 144.90028 e = 0.2851533 Node = 109.03282 2000.0 q = 2.9458904 AU Incl. = 19.89313 a = 4.1210102 AU n = 0.11781445 P = 8.37 years
m1 = 13.0 + 5 logΔ + 10.0 log r